When you browse on this site, cookies collect data to enhance your experience and personalize the content and advertising you see.
Visit our Privacy Policy to learn more. By continuing to use the site, you agree to this use of cookies and data.

Hourly Weather Graz

Today, 16 July, Thursday

Time Temperature Precipitation Wind Pressure Humidity
00:00 +16°C° 0 mm 1 mps 723 mmHg 77%
01:00 +16°C° 0 mm 1 mps 723 mmHg 77%
02:00 +15°C° 0 mm 1 mps 723 mmHg 78%
03:00 +15°C° 0 mm 1 mps 723 mmHg 79%
04:00 +15°C° 0 mm 1 mps 723 mmHg 80%
05:00 +16°C° 0 mm 1 mps 723 mmHg 78%
06:00 +18°C° 0 mm 1 mps 723 mmHg 76%
07:00 +17°C° 0 mm 0 mps 724 mmHg 74%
08:00 +20°C° 0.4 mm 1 mps 724 mmHg 74%
09:00 +20°C° 0.4 mm 1 mps 724 mmHg 74%
10:00 +21°C° 0.4 mm 1 mps 724 mmHg 73%
11:00 +22°C° 0.6 mm 1 mps 724 mmHg 72%
12:00 +22°C° 0.6 mm 1 mps 724 mmHg 72%
13:00 +23°C° 0.6 mm 1 mps 724 mmHg 71%
14:00 +22°C° 0.6 mm 1 mps 724 mmHg 75%
15:00 +21°C° 0.6 mm 1 mps 723 mmHg 79%
16:00 +18°C° 0.6 mm 0 mps 723 mmHg 83%
17:00 +18°C° 0.3 mm 0 mps 723 mmHg 85%
18:00 +17°C° 0.3 mm 0 mps 723 mmHg 87%
19:00 +16°C° 0.3 mm 0 mps 724 mmHg 89%
20:00 +16°C° 0.2 mm 0 mps 724 mmHg 90%
21:00 +16°C° 0.2 mm 1 mps 724 mmHg 91%
22:00 +16°C° 0.2 mm 1 mps 724 mmHg 92%
23:00 +16°C° 0.5 mm 1 mps 724 mmHg 93%

Tomorrow, 17 July, Friday

Time Temperature Precipitation Wind Pressure Humidity
00:00 +15°C° 0.5 mm 1 mps 724 mmHg 93%
01:00 +15°C° 0.5 mm 1 mps 724 mmHg 94%
02:00 +15°C° 1.1 mm 1 mps 724 mmHg 95%
03:00 +15°C° 1.1 mm 1 mps 723 mmHg 95%
04:00 +15°C° 1.1 mm 1 mps 723 mmHg 96%
05:00 +15°C° 0.4 mm 1 mps 723 mmHg 95%
06:00 +15°C° 0.4 mm 1 mps 724 mmHg 94%
07:00 +15°C° 0.4 mm 1 mps 724 mmHg 94%
08:00 +18°C° 0.5 mm 1 mps 724 mmHg 86%
09:00 +19°C° 0.5 mm 1 mps 724 mmHg 79%
10:00 +21°C° 0.5 mm 1 mps 725 mmHg 71%
11:00 +21°C° 0.8 mm 1 mps 724 mmHg 70%
12:00 +20°C° 0.8 mm 2 mps 724 mmHg 69%
13:00 +21°C° 0.8 mm 2 mps 724 mmHg 68%
14:00 +21°C° 1 mm 1 mps 724 mmHg 70%
15:00 +21°C° 1 mm 1 mps 723 mmHg 71%
16:00 +21°C° 1 mm 1 mps 723 mmHg 73%
17:00 +20°C° 0.4 mm 1 mps 723 mmHg 76%
18:00 +19°C° 0.4 mm 1 mps 723 mmHg 79%
19:00 +18°C° 0.4 mm 1 mps 723 mmHg 82%
20:00 +16°C° 0 mm 1 mps 724 mmHg 84%
21:00 +15°C° 0 mm 1 mps 724 mmHg 85%
22:00 +14°C° 0 mm 2 mps 724 mmHg 87%
23:00 +13°C° 0 mm 2 mps 724 mmHg 87%

Day after tomorrow, 18 July, Saturday

Time Temperature Precipitation Wind Pressure Humidity
00:00 +13°C° 0 mm 2 mps 724 mmHg 88%
01:00 +12°C° 0 mm 2 mps 724 mmHg 88%
02:00 +12°C° 0 mm 2 mps 724 mmHg 88%
03:00 +12°C° 0 mm 2 mps 724 mmHg 88%
04:00 +12°C° 0 mm 2 mps 724 mmHg 88%
05:00 +13°C° 0 mm 1 mps 724 mmHg 85%
06:00 +14°C° 0 mm 1 mps 724 mmHg 83%
07:00 +16°C° 0 mm 1 mps 724 mmHg 81%
08:00 +18°C° 0.3 mm 1 mps 724 mmHg 75%
09:00 +20°C° 0.3 mm 1 mps 724 mmHg 69%
10:00 +21°C° 0.3 mm 1 mps 724 mmHg 64%
11:00 +22°C° 0.7 mm 1 mps 724 mmHg 64%
12:00 +22°C° 0.7 mm 1 mps 723 mmHg 65%
13:00 +23°C° 0.7 mm 1 mps 723 mmHg 65%
14:00 +22°C° 1.3 mm 1 mps 723 mmHg 70%
15:00 +22°C° 1.3 mm 1 mps 723 mmHg 74%
16:00 +21°C° 1.3 mm 1 mps 723 mmHg 78%
17:00 +20°C° 0.6 mm 1 mps 723 mmHg 80%
18:00 +17°C° 0.6 mm 0 mps 723 mmHg 82%
19:00 +16°C° 0.6 mm 0 mps 723 mmHg 84%
20:00 +16°C° 0 mm 1 mps 723 mmHg 86%
21:00 +15°C° 0 mm 1 mps 723 mmHg 87%
22:00 +14°C° 0 mm 1 mps 724 mmHg 89%
23:00 +14°C° 0 mm 1 mps 723 mmHg 89%

19 July, Sunday

Time Temperature Precipitation Wind Pressure Humidity
00:00 +13°C° 0 mm 1 mps 723 mmHg 89%
01:00 +13°C° 0 mm 1 mps 723 mmHg 90%
02:00 +13°C° 0 mm 1 mps 723 mmHg 90%
03:00 +12°C° 0 mm 1 mps 723 mmHg 89%
04:00 +12°C° 0 mm 1 mps 723 mmHg 89%
05:00 +14°C° 0 mm 1 mps 723 mmHg 87%
06:00 +15°C° 0 mm 1 mps 723 mmHg 85%
07:00 +16°C° 0 mm 1 mps 723 mmHg 82%
08:00 +20°C° 0 mm 1 mps 724 mmHg 73%
09:00 +22°C° 0 mm 1 mps 724 mmHg 64%
10:00 +24°C° 0 mm 1 mps 724 mmHg 54%
11:00 +25°C° 0.2 mm 1 mps 724 mmHg 54%
12:00 +26°C° 0.2 mm 1 mps 723 mmHg 54%
13:00 +27°C° 0.2 mm 1 mps 723 mmHg 54%
14:00 +24°C° 0.5 mm 0 mps 723 mmHg 58%
15:00 +23°C° 0.5 mm 0 mps 723 mmHg 61%
16:00 +23°C° 0.5 mm 0 mps 722 mmHg 64%
17:00 +22°C° 0.2 mm 0 mps 722 mmHg 69%
18:00 +20°C° 0.2 mm 0 mps 722 mmHg 75%
19:00 +19°C° 0.2 mm 0 mps 722 mmHg 80%
20:00 +20°C° 0 mm 1 mps 722 mmHg 82%
21:00 +19°C° 0 mm 1 mps 723 mmHg 84%
22:00 +16°C° 0 mm 1 mps 723 mmHg 86%
23:00 +16°C° 0 mm 1 mps 723 mmHg 87%

20 July, Monday

Time Temperature Precipitation Wind Pressure Humidity
00:00 +16°C° 0 mm 1 mps 722 mmHg 87%
01:00 +15°C° 0 mm 1 mps 722 mmHg 88%
02:00 +15°C° 0 mm 1 mps 722 mmHg 88%
03:00 +15°C° 0 mm 1 mps 722 mmHg 88%
04:00 +15°C° 0 mm 2 mps 722 mmHg 88%
05:00 +16°C° 0 mm 1 mps 722 mmHg 84%
06:00 +19°C° 0 mm 1 mps 723 mmHg 81%
07:00 +20°C° 0 mm 1 mps 723 mmHg 77%
08:00 +23°C° 0 mm 1 mps 723 mmHg 68%
09:00 +25°C° 0 mm 1 mps 724 mmHg 58%
10:00 +26°C° 0 mm 0 mps 724 mmHg 49%
11:00 +28°C° 0 mm 1 mps 724 mmHg 48%
12:00 +29°C° 0 mm 1 mps 724 mmHg 46%
13:00 +29°C° 0 mm 1 mps 723 mmHg 45%
14:00 +29°C° 0 mm 1 mps 723 mmHg 45%
15:00 +29°C° 0 mm 1 mps 723 mmHg 46%
16:00 +29°C° 0 mm 1 mps 723 mmHg 46%
17:00 +28°C° 0.1 mm 1 mps 723 mmHg 55%
18:00 +26°C° 0.1 mm 1 mps 723 mmHg 64%
19:00 +24°C° 0.1 mm 1 mps 723 mmHg 74%
20:00 +23°C° 0 mm 1 mps 724 mmHg 77%
21:00 +22°C° 0 mm 1 mps 724 mmHg 80%
22:00 +20°C° 0 mm 1 mps 724 mmHg 83%
23:00 +20°C° 0.1 mm 1 mps 724 mmHg 84%

21 July, Tuesday

Time Temperature Precipitation Wind Pressure Humidity
00:00 +19°C° 0.1 mm 1 mps 724 mmHg 85%
01:00 +19°C° 0.1 mm 1 mps 724 mmHg 87%
02:00 +19°C° 0.2 mm 1 mps 724 mmHg 88%
03:00 +18°C° 0.2 mm 1 mps 725 mmHg 89%
04:00 +18°C° 0.2 mm 1 mps 725 mmHg 91%
05:00 +19°C° 0.4 mm 1 mps 725 mmHg 90%
06:00 +20°C° 0.4 mm 1 mps 725 mmHg 89%
07:00 +19°C° 0.4 mm 0 mps 725 mmHg 88%
08:00 +23°C° 0.5 mm 1 mps 725 mmHg 82%
09:00 +24°C° 0.5 mm 1 mps 725 mmHg 77%
10:00 +26°C° 0.5 mm 1 mps 726 mmHg 72%
11:00 +27°C° 0.9 mm 1 mps 725 mmHg 72%
12:00 +27°C° 0.9 mm 1 mps 725 mmHg 72%
13:00 +27°C° 0.9 mm 1 mps 725 mmHg 72%
14:00 +27°C° 0.9 mm 1 mps 725 mmHg 73%
15:00 +27°C° 0.9 mm 1 mps 724 mmHg 74%
16:00 +27°C° 0.9 mm 1 mps 724 mmHg 75%
17:00 +26°C° 0.5 mm 1 mps 724 mmHg 78%
18:00 +23°C° 0.5 mm 0 mps 724 mmHg 82%
19:00 +22°C° 0.5 mm 0 mps 724 mmHg 86%
20:00 +21°C° 0.1 mm 0 mps 724 mmHg 87%
21:00 +22°C° 0.1 mm 1 mps 724 mmHg 88%
22:00 +21°C° 0.1 mm 1 mps 725 mmHg 89%
23:00 +21°C° 0.3 mm 1 mps 725 mmHg 90%
Show more